This demonstration page uses our WeatherBlox Daily Observations layout. Learn more.

38.88101, -77.10428

Hourly Observations for March 27, 2016

Temp ( °F °C ) Dew Point ( °F °C ) Humidity (%) Winds ( mph kmh ) Pressure ( in mb ) Visibility ( mi km ) Precip ( " mm )
12:52 am 00:52 Cloudy 53 11.7 44 6.7 72 72 SE 9 15 30.33 1027 10 16.09344 0 0
1:52 am 01:52 Cloudy 52 11.1 41 5 66 66 SSE 8 13 30.33 1027 10 16.09344 0 0
2:52 am 02:52 Cloudy 51 10.6 42 5.6 71 71 ESE 8 13 30.33 1027 10 16.09344 0 0
3:52 am 03:52 Mostly Clear 50 10 41 5 71 71 ESE 7 11 30.3 1026 10 16.09344 0 0
4:52 am 04:52 Cloudy 50 10 41 5 71 71 ENE 7 11 30.3 1026 10 16.09344 0 0
5:34 am 05:34 Partly Cloudy 48 9 41 5 76 76 E 7 11 30.3 1026 10 16.09344 0 0
5:52 am 05:52 Partly Cloudy 49 9.4 42 5.6 77 77 E 8 13 30.3 1026 10 16.09344 0 0
6:52 am 06:52 Cloudy 49 9.4 43 6.1 80 80 ENE 6 9 30.33 1027 10 16.09344 0 0
7:52 am 07:52 Cloudy 50 10 44 6.7 80 80 ESE 5 7 30.33 1027 10 16.09344 0 0
8:45 am 08:45 Cloudy 51 10.6 45 7.2 80 80 ENE 5 7 30.33 1027 10 16.09344 0 0
8:52 am 08:52 Cloudy 51 10.6 45 7.2 80 80 ENE 6 9 30.33 1027 10 16.09344 0 0
9:52 am 09:52 Cloudy 51 10.6 46 7.8 83 83 ENE 7 11 30.33 1027 10 16.09344 0 0
10:52 am 10:52 Cloudy 52 11.1 46 7.8 80 80 ENE 5 7 30.33 1027 10 16.09344 0 0
11:19 am 11:19 Cloudy 53 11.7 47 8.3 80 80 ENE 5 7 30.33 1027 10 16.09344 0 0
11:52 am 11:52 Cloudy 54 12.2 46 7.8 75 75 NE 3 6 30.33 1027 10 16.09344 0 0
12:52 pm 12:52 Cloudy 56 13.3 47 8.3 72 72 E 8 13 30.3 1026 10 16.09344 0 0
1:52 pm 13:52 Cloudy 56 13.3 48 8.9 75 75 E 7 11 30.27 1025 10 16.09344 0 0
2:06 pm 14:06 Cloudy 55 13 46 8 72 72 E 9 15 30.27 1025 10 16.09344 0 0
2:52 pm 14:52 Cloudy 56 13.3 47 8.3 72 72 E 10 17 30.24 1024 10 16.09344 0 0
3:35 pm 15:35 Cloudy 56 13.3 48 8.9 75 75 E 8 13 30.21 1023 10 16.09344 0 0
3:52 pm 15:52 Cloudy 56 13.3 48 8.9 75 75 ESE 9 15 30.21 1023 10 16.09344 0 0
4:52 pm 16:52 Cloudy 56 13.3 47 8.3 72 72 E 9 15 30.18 1022 10 16.09344 0 0
5:52 pm 17:52 Cloudy 55 12.8 47 8.3 74 74 SE 8 13 30.18 1022 10 16.09344 0 0
6:52 pm 18:52 Cloudy with Light Drizzle 53 11.7 48 8.9 83 83 E 8 13 30.18 1022 5 8.04672 0.001 0.001
7:11 pm 19:11 Cloudy 53 11.7 48 8.9 83 83 SE 8 13 30.15 1021 10 16.09344 0.001 0.001
7:16 pm 19:16 Cloudy 52 11 48 9 88 88 SE 10 17 30.15 1021 10 16.09344 0 0
7:37 pm 19:37 Cloudy with Light Drizzle 52 11.1 48 8.9 86 86 E 8 13 30.15 1021 5 8.04672 0.001 0.001
7:52 pm 19:52 Cloudy with Light Drizzle 51 10.6 49 9.4 92 92 E 6 9 30.15 1021 6 9.656064 0.001 0.001
7:56 pm 19:56 Cloudy 52 11 48 9 88 88 E 7 11 30.15 1021 7 11.265408 0 0
8:39 pm 20:39 Cloudy with Light Drizzle 51 10.6 48 8.9 89 89 E 8 13 30.15 1021 5 8.04672 0.001 0.001
8:52 pm 20:52 Cloudy with Light Drizzle 51 10.6 48 8.9 89 89 E 7 11 30.15 1021 6 9.656064 0.001 0.001
9:05 pm 21:05 Cloudy with Light Drizzle 51 10.6 48 8.9 89 89 ENE 7 11 30.15 1021 4 6.437376 0.001 0.001
9:17 pm 21:17 Cloudy with Light Drizzle 50 10 48 8.9 93 93 ENE 9 15 30.12 1020 5 8.04672 0.001 0.001
9:48 pm 21:48 Cloudy 50 10 48 9 94 94 ENE 5 7 30.12 1020 10 16.09344 0 0
9:52 pm 21:52 Cloudy 50 10 48 8.9 93 93 E 7 11 30.12 1020 10 16.09344 0.001 0.001
10:21 pm 22:21 Cloudy 50 10 48 8.9 93 93 E 8 13 30.09 1019 10 16.09344 0 0
10:52 pm 22:52 Cloudy with Light Drizzle 50 10 48 8.9 93 93 E 8 13 30.09 1019 7 11.265408 0.001 0.001
11:52 pm 23:52 Cloudy with Light Drizzle 49 9.4 47 8.3 93 93 E 9 15 30.03 1017 3 4.828032 0.001 0.001

Powered by AerisWeather